#timestamp,LO_Frequency,Hit,StdDev 
1630432815.4,286047001.5,N
1630432835.3,286047002.8,N
1630432855.1,286047002.5,N
1630432856.0,286047002.5,N
1630432875.8,286047001.1,N
1630432895.7,286047001.1,N
1630432915.5,286047000.6,N
1630432935.3,286047000.4,N
1630432955.2,286047002.5,N
1630432975.0,286046999.9,N
1630432975.9,286046999.9,N
1630432995.8,286047002.4,N
1630433015.6,286047000.4,N
1630433035.4,286047000.7,N
1630433055.3,286047002.2,N
1630433075.1,286047001.4,N
1630433095.8,286047003.5,N
1630433115.7,286047002.9,N
1630433135.5,286047001.4,N
1630433155.4,286047000.2,N
1630433175.2,286047002.3,N
1630433195.0,286047002.4,N
1630433195.9,286047002.4,N
1630433215.8,286047000.1,N
1630433235.6,286047001.0,N
1630433255.4,286046998.5,N
1630433275.3,286046998.9,N
1630433295.1,286046998.2,N
1630433315.9,286046998.6,N
1630433335.7,286047001.2,N
1630433355.5,286047001.0,N
1630433375.4,286047000.8,N
1630433395.2,286046999.6,N
1630433415.0,286046996.6,N
1630433416.0,286046996.6,N
1630433435.8,286046999.6,N
1630433455.6,286046999.6,N
1630433475.5,286046996.8,N
1630433495.3,286046999.0,N
1630433515.1,286046997.2,N
1630433535.9,286046995.0,N
1630433555.7,286046995.3,N
1630433575.5,286046995.5,N
1630433595.4,286046996.3,N
1630433615.2,286046995.9,N
1630433635.1,286046994.7,N
1630433636.0,286046994.7,N
1630433655.8,286046993.5,N
1630433675.6,286046993.8,N
1630433695.5,286046995.3,N
1630433715.3,286046995.1,N
1630433735.2,286046995.4,N
1630433755.9,286046995.3,N
1630433775.7,286046998.0,N
1630433795.6,286046998.0,N
1630433815.4,286046994.9,N
1630433835.2,286046996.2,N
1630433855.1,286046996.2,N
1630433856.0,286046996.2,N
1630433875.8,286046995.6,N
1630433895.7,286046994.9,N
1630433915.5,286046995.9,N
1630433935.4,286046993.4,Y
1630433955.2,286046998.9,P
1630433975.0,286046999.6,N
1630433975.9,286046999.6,N
1630433995.8,286046996.5,N
1630434015.6,286046998.5,N
1630434035.4,286046998.4,N
1630434055.3,286047000.7,N
1630434075.1,286047000.6,N
1630434095.9,286047000.9,N
1630434115.7,286047000.6,N
1630434135.5,286046999.7,N
1630434155.4,286046999.7,N
1630434175.2,286046999.9,N
1630434195.0,286047002.1,N
1630434195.9,286047002.1,N
1630434215.8,286047004.0,N
1630434235.6,286047002.4,N
1630434255.5,286046999.7,N
1630434275.3,286047002.1,N
1630434295.1,286047002.3,N
1630434315.9,286047002.3,N
1630434335.7,286047002.0,N
1630434355.5,286047001.7,N
1630434375.4,286047000.3,N
1630434395.2,286047011.9,Y
1630434415.1,286047000.8,P
1630434416.0,286047000.8,P
1630434435.8,286046998.1,P
1630434455.6,286047000.6,N
1630434475.5,286046999.3,N
1630434495.3,286046996.7,Y
1630434515.2,286046999.5,P
1630434535.9,286046997.2,P
1630434555.7,286046996.8,N
1630434575.6,286046997.3,N
1630434595.4,286046995.2,Y
1630434615.2,286046995.4,P
1630434635.1,286046996.3,N
1630434636.0,286046996.3,P
1630434655.8,286046993.7,Y
1630434675.7,286046997.8,P
1630434695.5,286046997.5,P
1630434715.3,286046995.1,P
1630434735.2,286046995.1,Y
1630434755.0,286046996.7,P
1630434755.9,286046996.7,P
1630434775.8,286046997.4,P
1630434795.6,286046998.6,Y
1630434815.4,286047003.7,P
1630434835.3,286047002.2,N
1630434855.1,286047001.8,N
1630434875.8,286047001.3,N
1630434895.7,286047001.4,N
1630434915.5,286047004.0,N
1630434935.4,286047003.2,N
1630434955.2,286047003.8,N
1630434975.0,286047003.6,N
1630434975.9,286047003.6,N
1630434995.8,286047001.4,N
1630435015.6,286047001.7,N
1630435035.4,286047003.2,N
1630435055.3,286047003.4,N
1630435075.1,286047003.6,N
1630435095.9,286047003.3,N
1630435115.7,286047004.7,N
1630435135.5,286047003.0,N
1630435155.4,286047005.6,Y
1630435175.2,286047004.1,P
1630435195.1,286047001.5,N
1630435196.0,286047001.5,N
1630435215.8,286047002.0,N
1630435235.6,286047002.2,N
1630435255.5,286047004.0,Y
1630435275.3,286047001.1,P
1630435295.2,286047002.3,P
1630435315.0,286047002.8,P
1630435315.9,286047002.8,Y
1630435335.8,286047000.6,P
1630435355.6,286047000.7,N
1630435375.4,286047001.1,N
1630435395.3,286047000.3,N
1630435415.1,286046999.7,N
1630435435.8,286047001.6,N
1630435455.7,286047002.6,Y
1630435475.5,286047000.2,P
1630435495.4,286047000.5,N
1630435515.2,286047000.0,N
1630435535.0,286047001.8,Y
1630435535.9,286047001.8,P
1630435555.8,286046999.8,N
1630435575.6,286047002.4,N
1630435595.4,286047011.9,Y
1630435615.3,286047001.2,P
1630435635.1,286046998.7,P
1630435655.9,286047001.1,N
1630435675.7,286047000.4,N
1630435695.5,286047000.1,N
1630435715.4,286047002.3,N
1630435735.2,286047002.2,N
1630435755.0,286047002.3,N
1630435755.9,286047002.3,N
1630435775.8,286047002.3,N
1630435795.6,286047001.9,N
1630435815.5,286047001.8,N
1630435835.3,286047002.0,N
1630435855.1,286047004.1,Y
1630435875.9,286047002.5,P
1630435895.7,286047002.8,P
1630435915.5,286047002.0,P
1630435935.4,286047002.4,Y
1630435955.2,286046998.9,P
1630435975.1,286046999.3,N
1630435976.0,286046999.3,N
1630435995.8,286046998.3,N
1630436015.6,286046998.3,N
1630436035.5,286046999.3,N
1630436055.3,286046998.9,N
1630436075.2,286047000.4,N
1630436095.0,286046999.8,N
1630436095.9,286046999.8,N
1630436115.7,286047000.3,N
1630436135.6,286047001.2,N
1630436155.4,286046998.6,N
1630436175.3,286046998.3,N
1630436195.1,286046998.9,N
1630436196.0,286046998.9,N
1630436215.8,286046998.8,N
1630436235.7,286046998.5,N
1630436255.5,286047000.9,N
1630436275.3,286047000.7,N
1630436295.2,286047002.7,N
1630436315.0,286047004.3,Y
1630436315.9,286047004.3,P
1630436335.8,286047004.0,N
1630436355.6,286047003.0,N
1630436375.4,286047005.0,N
1630436395.3,286047007.6,Y
